Weather History for KDLZ - December, 2013

Change the Weather History Date:

Friday, December 6, 2013

  Actual Average Record
Temperature  
Mean Temperature 28 °F -  
Max Temperature 32 °F 42 °F 69 °F (1956)
Min Temperature 24 °F 26 °F 7 °F (1974)
Degree Days  
Heating Degree Days 37    
Moisture  
Dew Point 26 °F    
Average Humidity 93    
Maximum Humidity 100    
Minimum Humidity 86    
Precipitation  
Precipitation 0.08 in - - ()
Sea Level Pressure  
Sea Level Pressure 30.22 in    
Wind  
Wind Speed 7 mph (NNW)    
Max Wind Speed 12 mph    
Max Gust Speed -    
Visibility 3 miles    
Events Snow    
Averages and records for this station are not official NWS values.
T = Trace of Precipitation, MM = Missing Value Source: NWS Daily Summary

Daily Weather History Graph

Daily Weather History Graph

Search for Another Location

Airport or City:

Trip Planner

Search our weather history database for the weather conditions in past years. The results will help you decide how hot, cold, wet, or windy it might be!

Date:

Astronomy

Dec. 06, 2013 Rise Set
Actual Time 7:40 AM EST 5:06 PM EST
Civil Twilight 7:10 AM EST 5:36 PM EST
Nautical Twilight 6:36 AM EST 6:10 PM EST
Astronomical Twilight 6:03 AM EST 6:43 PM EST
Moon 10:45 AM EST (12/6) 9:37 PM EST (12/6)
Length of Visible Light 10h 26m
Length of Day
9h 25m
Waxing Crescent, 19% of the Moon is Illuminated
Dec 6
Waxing Crescent
Dec 9
First Quarter
Dec 17
Full
Dec 25
Last Quarter
Jan 1
New

Hourly Weather History & Observations

Time (EST) Temp. Windchill Dew Point Humidity Pressure Visibility Wind Dir Wind Speed Gust Speed Precip Events Conditions
12:17 AM 32.0 °F 24.8 °F 28.4 °F 87% 30.10 in 10.0 mi NNW 8.1 mph - N/A   Overcast
12:37 AM 32.0 °F 26.4 °F 28.4 °F 87% 30.13 in 10.0 mi NW 5.8 mph - N/A   Overcast
12:58 AM 32.0 °F 26.4 °F 28.4 °F 87% 30.12 in 7.0 mi NNW 5.8 mph - N/A   Overcast
1:17 AM 30.2 °F 23.4 °F 28.4 °F 93% 30.12 in 5.0 mi NNW 6.9 mph - N/A Snow Light Snow
1:37 AM 30.2 °F 24.3 °F 28.4 °F 93% 30.12 in 5.0 mi NNW 5.8 mph - N/A   Overcast
1:58 AM 30.2 °F 22.6 °F 28.4 °F 93% 30.14 in 5.0 mi NW 8.1 mph - N/A   Overcast
2:17 AM 30.2 °F 24.3 °F 28.4 °F 93% 30.13 in 5.0 mi NW 5.8 mph - N/A   Overcast
2:37 AM 30.2 °F 22.6 °F 28.4 °F 93% 30.14 in 4.0 mi NW 8.1 mph - N/A Snow Light Snow
2:58 AM 30.2 °F 21.9 °F 28.4 °F 93% 30.15 in 4.0 mi NNW 9.2 mph - 0.01 in Snow Light Snow
3:17 AM 30.2 °F 21.9 °F 28.4 °F 93% 30.13 in 4.0 mi North 9.2 mph - N/A Snow Light Snow
3:37 AM 30.2 °F 23.4 °F 28.4 °F 93% 30.15 in 7.0 mi NNW 6.9 mph - N/A   Overcast
3:58 AM 30.2 °F 23.4 °F 28.4 °F 93% 30.17 in 5.0 mi NW 6.9 mph - N/A   Overcast
4:17 AM 30.2 °F 22.6 °F 28.4 °F 93% 30.17 in 4.0 mi North 8.1 mph - 0.01 in Snow Light Snow
4:37 AM 28.4 °F 19.7 °F 26.6 °F 93% 30.17 in 3.0 mi North 9.2 mph - 0.02 in Snow Light Snow
4:58 AM 28.4 °F 22.2 °F 26.6 °F 93% 30.18 in 5.0 mi North 5.8 mph - 0.02 in Snow Light Snow
5:17 AM 28.4 °F 23.3 °F 26.6 °F 93% 30.18 in 4.0 mi NNW 4.6 mph - 0.01 in Snow Light Snow
5:37 AM 28.4 °F 24.6 °F 26.6 °F 93% 30.19 in 3.0 mi NNW 3.5 mph - 0.01 in Snow Light Snow
5:58 AM 28.4 °F 24.6 °F 26.6 °F 93% 30.19 in 2.5 mi NNW 3.5 mph - 0.02 in Snow Light Snow
6:17 AM 28.4 °F 21.2 °F 26.6 °F 93% 30.19 in 2.0 mi NNW 6.9 mph - N/A Snow Light Snow
6:38 AM 28.4 °F 21.2 °F 26.6 °F 93% 30.17 in 4.0 mi North 6.9 mph - N/A Snow Light Snow
6:57 AM 28.4 °F 22.2 °F 26.6 °F 93% 30.18 in 5.0 mi NNW 5.8 mph - N/A   Overcast
7:17 AM 28.4 °F 24.6 °F 26.6 °F 93% 30.17 in 5.0 mi North 3.5 mph - N/A   Overcast
7:38 AM 28.4 °F 24.6 °F 26.6 °F 93% 30.18 in 5.0 mi NNW 3.5 mph - N/A   Overcast
7:57 AM 28.4 °F 23.3 °F 26.6 °F 93% 30.20 in 5.0 mi NNW 4.6 mph - N/A   Overcast
8:17 AM 28.4 °F 22.2 °F 26.6 °F 93% 30.21 in 5.0 mi NW 5.8 mph - N/A   Overcast
8:38 AM 28.4 °F 22.2 °F 26.6 °F 93% 30.21 in 3.0 mi NNW 5.8 mph - N/A Snow Light Snow
8:57 AM 28.4 °F 22.2 °F 26.6 °F 93% 30.23 in 2.5 mi NW 5.8 mph - N/A Snow Light Snow
9:17 AM 28.4 °F 21.2 °F 26.6 °F 93% 30.22 in 1.8 mi NNW 6.9 mph - N/A Snow Light Snow
9:38 AM 28.4 °F 22.2 °F 26.6 °F 93% 30.21 in 1.0 mi NNW 5.8 mph - N/A Snow Light Snow
9:57 AM 28.4 °F 22.2 °F 26.6 °F 93% 30.22 in 1.5 mi NNW 5.8 mph - N/A Snow Light Snow
10:17 AM 28.4 °F 21.2 °F 26.6 °F 93% 30.23 in 0.8 mi NNW 6.9 mph - N/A Snow Light Snow
10:38 AM 28.4 °F 19.7 °F 26.6 °F 93% 30.23 in 0.8 mi NNW 9.2 mph - N/A Snow Light Snow
10:57 AM 28.4 °F 21.2 °F 26.6 °F 93% 30.23 in 1.8 mi NNW 6.9 mph - N/A Snow Light Snow
11:17 AM 28.4 °F 19.1 °F 26.6 °F 93% 30.24 in 2.0 mi NNW 10.4 mph - N/A Snow Light Snow
11:38 AM 28.4 °F 19.7 °F 26.6 °F 93% 30.24 in 1.2 mi NNW 9.2 mph - N/A Snow Light Snow
11:57 AM 28.4 °F 18.5 °F 26.6 °F 93% 30.22 in 1.5 mi NNW 11.5 mph - N/A Snow Light Snow
12:17 PM 28.4 °F 19.7 °F 26.6 °F 93% 30.24 in 1.5 mi NNW 9.2 mph - N/A Snow Light Snow
12:38 PM 28.4 °F 21.2 °F 26.6 °F 93% 30.23 in 1.5 mi NNW 6.9 mph - N/A Snow Light Snow
12:57 PM 28.4 °F 20.4 °F 26.6 °F 93% 30.22 in 1.2 mi NNW 8.1 mph - N/A Snow Light Snow
1:17 PM 28.4 °F 21.2 °F 26.6 °F 93% 30.20 in 1.8 mi North 6.9 mph - N/A Snow Light Snow
1:38 PM 28.4 °F 20.4 °F 26.6 °F 93% 30.19 in 1.5 mi NNW 8.1 mph - N/A Snow Light Snow
1:57 PM 28.4 °F 20.4 °F 26.6 °F 93% 30.20 in 1.5 mi NNW 8.1 mph - N/A Snow Light Snow
2:17 PM 28.4 °F 19.7 °F 26.6 °F 93% 30.19 in 1.5 mi North 9.2 mph - 0.01 in Snow Light Snow
2:38 PM 28.4 °F 21.2 °F 26.6 °F 93% 30.19 in 1.0 mi North 6.9 mph - 0.01 in Snow Light Snow
2:57 PM 28.4 °F 19.7 °F 26.6 °F 93% 30.18 in 1.2 mi North 9.2 mph - 0.01 in Snow Light Snow
3:17 PM 28.4 °F 20.4 °F 26.6 °F 93% 30.20 in 1.2 mi NNW 8.1 mph - N/A Snow Light Snow
3:38 PM 28.4 °F 20.4 °F 26.6 °F 93% 30.17 in 1.2 mi North 8.1 mph - 0.01 in Snow Light Snow
3:57 PM 28.4 °F 19.1 °F 26.6 °F 93% 30.19 in 2.0 mi NNW 10.4 mph - 0.01 in Snow Light Snow
4:18 PM 28.4 °F 19.1 °F 26.6 °F 93% 30.21 in 2.0 mi North 10.4 mph - N/A Snow Light Snow
4:37 PM 28.4 °F 19.1 °F 26.6 °F 93% 30.22 in 1.5 mi North 10.4 mph - N/A Snow Light Snow
4:57 PM 26.6 °F 17.5 °F 26.6 °F 100% 30.22 in 1.2 mi North 9.2 mph - N/A Snow Light Snow
5:18 PM 26.6 °F 16.2 °F 26.6 °F 100% 30.22 in 4.0 mi North 11.5 mph - N/A Snow Light Snow
5:37 PM 26.6 °F 18.2 °F 26.6 °F 100% 30.24 in 5.0 mi North 8.1 mph - N/A Snow Light Snow
5:57 PM 26.6 °F 16.8 °F 24.8 °F 93% 30.22 in 2.5 mi North 10.4 mph - N/A Snow Light Snow
6:18 PM 26.6 °F 18.2 °F 24.8 °F 93% 30.24 in 3.0 mi North 8.1 mph - N/A Snow Light Snow
6:37 PM 26.6 °F 19.1 °F 24.8 °F 93% 30.24 in 3.0 mi North 6.9 mph - N/A Snow Light Snow
6:57 PM 26.6 °F 16.8 °F 26.6 °F 100% 30.27 in 2.0 mi North 10.4 mph - N/A Snow Light Snow
7:18 PM 26.6 °F 19.1 °F 24.8 °F 93% 30.28 in 2.0 mi North 6.9 mph - N/A Snow Light Snow
7:37 PM 26.6 °F 21.2 °F 24.8 °F 93% 30.30 in 1.5 mi NNW 4.6 mph - N/A Snow Light Snow
7:57 PM 26.6 °F 19.1 °F 24.8 °F 93% 30.28 in 1.2 mi North 6.9 mph - 0.01 in Snow Light Snow
8:18 PM 26.6 °F 20.0 °F 24.8 °F 93% 30.29 in 2.0 mi North 5.8 mph - N/A Snow Light Snow
8:37 PM 26.6 °F 20.0 °F 24.8 °F 93% 30.30 in 1.5 mi NNW 5.8 mph - N/A Snow Light Snow
8:57 PM 26.6 °F 19.1 °F 23.0 °F 86% 30.30 in 5.0 mi North 6.9 mph - N/A Snow Light Snow
9:18 PM 26.6 °F 17.5 °F 23.0 °F 86% 30.31 in 4.0 mi North 9.2 mph - N/A Snow Light Snow
9:37 PM 26.6 °F 19.1 °F 23.0 °F 86% 30.31 in 3.0 mi NNE 6.9 mph - N/A Snow Light Snow
9:58 PM 26.6 °F 22.6 °F 23.0 °F 86% 30.31 in 4.0 mi NNE 3.5 mph - N/A Snow Light Snow
10:17 PM 26.6 °F 22.6 °F 23.0 °F 86% 30.32 in 5.0 mi North 3.5 mph - N/A Snow Light Snow
10:37 PM 24.8 °F 20.5 °F 23.0 °F 93% 30.33 in 5.0 mi North 3.5 mph - N/A Snow Light Snow
10:58 PM 24.8 °F 20.5 °F 23.0 °F 93% 30.34 in 4.0 mi NNW 3.5 mph - N/A Snow Light Snow
11:17 PM 26.6 °F 22.6 °F 23.0 °F 86% 30.35 in 5.0 mi NNW 3.5 mph - N/A Snow Light Snow
11:37 PM 24.8 °F - 23.0 °F 93% 30.35 in 5.0 mi Calm Calm - N/A Snow Light Snow
11:58 PM 24.8 °F - 23.0 °F 93% 30.35 in 7.0 mi Calm Calm - N/A Snow Light Snow